EW1948 Weather Reports


Display with metric or nautical units.
time (UTC)temp
F
wind
direction
speed
MPH
gust
MPH
rain 1hr
in
rain 24hr
in
rain mn
in
humidity
%
barometer
mb
20260503195516 73 180 6.0 13.0 0.00 0.00 0.00 37 1012.6
20260503194516 72 158 6.0 15.0 0.00 0.00 0.00 36 1013.0
20260503193516 73 180 5.0 14.0 0.00 0.00 0.00 37 1013.3
20260503192516 72 158 6.0 11.0 0.00 0.00 0.00 38 1013.7
20260503191516 71 180 5.0 13.0 0.00 0.00 0.00 38 1013.9
20260503190516 71 135 5.0 13.0 0.00 0.00 0.00 38 1014.1
20260503185516 70 180 6.0 14.0 0.00 0.00 0.00 37 1014.4
20260503184556 70 180 5.0 12.0 0.00 0.00 0.00 38 1014.7
20260503183516 69 158 4.0 10.0 0.00 0.00 0.00 39 1014.8
20260503182536 69 158 5.0 14.0 0.00 0.00 0.00 37 1015.2
20260503181517 68 158 6.0 12.0 0.00 0.00 0.00 38 1015.5
20260503180516 67 158 8.0 15.0 0.00 0.00 0.00 38 1015.8
20260503175516 67 180 6.0 14.0 0.00 0.00 0.00 38 1016.2
20260503174516 67 158 5.0 9.0 0.00 0.00 0.00 40 1016.6
20260503173517 66 113 5.0 12.0 0.00 0.00 0.00 43 1016.9
20260503172517 66 158 5.0 12.0 0.00 0.00 0.00 43 1017.0
20260503171556 65 180 5.0 12.0 0.00 0.00 0.00 42 1017.4
20260503170516 65 180 6.0 14.0 0.00 0.00 0.00 43 1017.5
20260503150517 58 135 4.0 15.0 0.00 0.00 0.00 57 1019.0
20260503130517 49 180 5.0 9.0 0.00 0.00 0.00 72 1020.1
20260503110517 42 158 2.0 3.0 0.00 0.00 0.00 85 1019.0
20260503081517 43 0.0 1.0 0.00 0.00 0.00 89 1019.5
20260503080518 42 0.0 1.0 0.00 0.00 0.00 89 1019.6
20260503072518 42 0.0 0.0 0.00 0.00 0.00 88 1019.8
20260503071517 43 0.0 0.0 0.00 0.00 0.00 89 1019.8
20260503070537 43 0.0 0.0 0.00 0.00 0.00 88 1019.8
20260503054537 43 0.0 0.0 0.00 0.00 0.00 88 1020.1
20260503053517 43 0.0 0.0 0.00 0.00 0.00 88 1020.1
20260503052516 43 0.0 0.0 0.00 0.00 0.00 87 1020.3
20260503051516 43 0.0 0.0 0.00 0.00 0.00 87 1020.2
20260503050516 43 0.0 1.0 0.00 0.00 0.00 86 1020.2
20260503045517 43 0.0 0.0 0.00 0.00 0.00 84 1020.3
20260503044517 44 0.0 0.0 0.00 0.00 0.00 84 1020.3
20260503043517 44 0.0 0.0 0.00 0.00 0.00 83 1020.2
20260503042518 44 0.0 0.0 0.00 0.00 0.00 82 1020.1
20260503041517 45 0.0 0.0 0.00 0.00 0.00 81 1020.1
20260503040520 45 0.0 0.0 0.00 0.00 0.00 80 1020.1
20260503035517 45 0.0 0.0 0.00 0.00 0.00 80 1020.2
20260503034517 46 0.0 0.0 0.00 0.00 0.00 78 1020.2
20260503033619 46 0.0 0.0 0.00 0.00 0.00 77 1020.2
20260503032518 46 0.0 0.0 0.00 0.00 0.00 76 1020.2
20260503031517 47 0.0 1.0 0.00 0.00 0.00 74 1020.2
20260503030517 47 0.0 0.0 0.00 0.00 0.00 74 1020.1
20260503025517 47 0.0 0.0 0.00 0.00 0.00 71 1020.1
20260503024517 48 0.0 0.0 0.00 0.00 0.00 70 1020.1
20260503023518 48 0.0 1.0 0.00 0.00 0.00 69 1020.1
20260503022517 48 0.0 0.0 0.00 0.00 0.00 67 1020.0
20260503021517 49 0.0 0.0 0.00 0.00 0.00 65 1020.0
20260503020558 50 0.0 1.0 0.00 0.00 0.00 64 1019.9
20260503015517 50 0.0 1.0 0.00 0.00 0.00 62 1019.8
20260503014516 51 0.0 0.0 0.00 0.00 0.00 60 1019.7
20260503013517 52 0.0 1.0 0.00 0.00 0.00 59 1019.6
20260503012517 53 0.0 0.0 0.00 0.00 0.00 57 1019.5
20260503011517 54 0.0 0.0 0.00 0.00 0.00 55 1019.4
20260503010517 55 0.0 0.0 0.00 0.00 0.00 53 1019.5
20260503005516 56 0.0 0.0 0.00 0.00 0.00 51 1019.4
20260503004517 57 0.0 1.0 0.00 0.00 0.00 48 1019.3
20260503003517 58 338 1.0 2.0 0.00 0.00 0.00 44 1019.4
20260503002516 58 338 1.0 2.0 0.00 0.00 0.00 43 1019.2
20260503001537 59 293 1.0 3.0 0.00 0.00 0.00 43 1019.3
20260503000516 60 338 2.0 4.0 0.00 0.00 0.00 40 1019.2
20260502235517 61 315 2.0 4.0 0.00 0.00 0.00 40 1019.2
20260502234517 61 0 2.0 5.0 0.00 0.00 0.00 40 1019.1
20260502233517 61 270 3.0 5.0 0.00 0.00 0.00 38 1019.1
20260502232524 62 338 2.0 6.0 0.00 0.00 0.00 38 1019.3
20260502231517 62 338 2.0 4.0 0.00 0.00 0.00 38 1019.2
20260502230618 62 293 3.0 5.0 0.00 0.00 0.00 37 1019.3
20260502225538 62 315 1.0 4.0 0.00 0.00 0.00 38 1019.3
20260502224517 63 315 3.0 6.0 0.00 0.00 0.00 37 1019.3
20260502223516 63 338 2.0 5.0 0.00 0.00 0.00 38 1019.2
20260502222516 63 315 2.0 5.0 0.00 0.00 0.00 39 1019.2
20260502221516 62 0 3.0 7.0 0.00 0.00 0.00 40 1019.2
20260502220516 63 68 2.0 4.0 0.00 0.00 0.00 39 1019.3
20260502215516 63 338 3.0 8.0 0.00 0.00 0.00 40 1019.4
20260502214522 64 270 4.0 7.0 0.00 0.00 0.00 38 1019.3
20260502213518 63 68 2.0 6.0 0.00 0.00 0.00 40 1019.4
20260502212538 62 293 3.0 6.0 0.00 0.00 0.00 40 1019.4
20260502211536 62 315 3.0 7.0 0.00 0.00 0.00 40 1019.5
20260502210516 61 315 4.0 9.0 0.00 0.00 0.00 39 1019.4
20260502205516 62 293 3.0 6.0 0.00 0.00 0.00 37 1019.5
20260502204536 63 315 2.0 7.0 0.00 0.00 0.00 39 1019.5
20260502203516 62 293 2.0 6.0 0.00 0.00 0.00 40 1019.7
20260502202516 62 315 3.0 6.0 0.00 0.00 0.00 41 1020.0
20260502201539 60 338 2.0 7.0 0.00 0.00 0.00 42 1020.0
20260502200516 61 338 2.0 7.0 0.00 0.00 0.00 41 1020.0